Columbus, OH

12:14 PM EST on December 04, 2016 (GMT -0500)
Port Columbus International

Weather History for KCMH - January, 2012

Change the Weather History Date:

Saturday, January 21, 2012

  Actual Average Record
Temperature  
Mean Temperature 25 °F 29 °F  
Max Temperature 28 °F 36 °F 72 °F (1906)
Min Temperature 21 °F 22 °F -16 °F (1984)
Degree Days  
Heating Degree Days 40 36  
Month to date heating degree days 707 749  
Since 1 July heating degree days 2382 2740  
Cooling Degree Days 0 0  
Month to date cooling degree days 0 0  
Year to date cooling degree days 0 0  
Moisture  
Dew Point 21 °F    
Average Humidity 79    
Maximum Humidity 88    
Minimum Humidity 69    
Precipitation  
Precipitation 0.16 in 0.08 in 4.79 in (1959)
Month to date precipitation 1.57 1.89  
Year to date precipitation 1.57 1.89  
Snow  
Snow 0.80 in 0.30 in 4.50 in (1926)
Month to date snowfall 5.7 6.3  
Since 1 July snowfall 6.2 12.4  
Snow Depth 1.00 in    
Sea Level Pressure  
Sea Level Pressure 30.06 in    
Wind  
Wind Speed 8 mph (NNE)    
Max Wind Speed 15 mph    
Max Gust Speed 18 mph    
Visibility 8 miles    
Events Rain , Snow    
T = Trace of Precipitation, MM = Missing Value Source: NWS Daily Summary

Daily Weather History Graph

Daily Weather History Graph

Search for Another Location

Airport or City:

Trip Planner

Search our weather history database for the weather conditions in past years. The results will help you decide how hot, cold, wet, or windy it might be!

Date:

Astronomy

Jan. 21, 2012 Rise Set
Actual Time 7:48 AM EST 5:37 PM EST
Civil Twilight 7:19 AM EST 6:06 PM EST
Nautical Twilight 6:46 AM EST 6:39 PM EST
Astronomical Twilight 6:14 AM EST 7:11 PM EST
Moon 6:18 AM EST (1/21) 4:11 PM EST (1/21)
Length of Visible Light 10h 47m
Length of Day
9h 48m
Waning Crescent, 3% of the Moon is Illuminated
Jan 21
Waning Crescent
Jan 23
New
Jan 30
First Quarter
Feb 7
Full
Feb 14
Last Quarter

Hourly Weather History & Observations

Time (EST) Temp. Windchill Dew Point Humidity Pressure Visibility Wind Dir Wind Speed Gust Speed Precip Events Conditions
12:22 AM 24.8 °F 16.9 °F 21.2 °F 86% 29.92 in 3.0 mi NNE 6.9 mph - 0.02 in Snow Light Ice Pellets
12:39 AM 24.8 °F 16.1 °F 23.0 °F 93% 29.91 in 3.0 mi NNE 8.1 mph - 0.04 in Rain Light Freezing Rain
12:51 AM 25.0 °F 14.8 °F 21.9 °F 88% 29.94 in 3.0 mi NNE 10.4 mph 17.3 mph 0.04 in Rain Light Freezing Rain
1:23 AM 24.8 °F 15.3 °F 21.2 °F 86% 29.90 in 3.0 mi NNE 9.2 mph - 0.02 in Rain Light Freezing Rain
1:51 AM 24.1 °F 15.2 °F 21.0 °F 88% 29.94 in 5.0 mi NNE 8.1 mph - 0.04 in Rain Light Freezing Rain
2:28 AM 24.8 °F 14.0 °F 21.2 °F 86% 29.90 in 5.0 mi NNE 11.5 mph - 0.01 in   Light Ice Pellets
2:51 AM 24.1 °F 15.2 °F 21.0 °F 88% 29.94 in 6.0 mi NNE 8.1 mph - 0.03 in   Light Ice Pellets
3:39 AM 24.8 °F 17.9 °F 21.2 °F 86% 29.89 in 5.0 mi NNE 5.8 mph 17.3 mph 0.04 in Snow Light Ice Pellets
3:51 AM 24.1 °F 15.2 °F 21.0 °F 88% 29.92 in 5.0 mi NE 8.1 mph - 0.05 in Snow Light Ice Pellets
4:08 AM 24.8 °F 19.1 °F 21.2 °F 86% 29.89 in 7.0 mi NE 4.6 mph - 0.01 in Snow Light Snow
4:51 AM 25.0 °F 17.1 °F 21.9 °F 88% 29.93 in 9.0 mi North 6.9 mph - 0.01 in Snow Light Snow
5:01 AM 24.8 °F 15.3 °F 21.2 °F 86% 29.90 in 9.0 mi NNW 9.2 mph - 0.00 in Snow Light Snow
5:51 AM 25.0 °F 14.8 °F 21.0 °F 85% 29.96 in 10.0 mi North 10.4 mph - 0.00 in   Overcast
5:59 AM 24.8 °F 13.4 °F 21.2 °F 86% 29.94 in 10.0 mi NNW 12.7 mph - N/A   Overcast
6:51 AM 24.1 °F 11.5 °F 21.0 °F 88% 30.00 in 10.0 mi North 15.0 mph - N/A   Overcast
7:13 AM 23.0 °F 11.1 °F 19.4 °F 86% 29.98 in 10.0 mi North 12.7 mph - N/A   Overcast
7:44 AM 21.2 °F 10.1 °F 19.4 °F 93% 30.01 in 9.0 mi North 10.4 mph - N/A   Overcast
7:51 AM 23.0 °F 11.7 °F 19.0 °F 85% 30.05 in 9.0 mi North 11.5 mph - N/A   Overcast
8:51 AM 23.0 °F 11.7 °F 19.0 °F 85% 30.08 in 10.0 mi North 11.5 mph - N/A   Overcast
9:51 AM 25.0 °F 15.5 °F 21.0 °F 85% 30.11 in 10.0 mi NNW 9.2 mph - N/A   Overcast
10:26 AM 24.8 °F 15.3 °F 21.2 °F 86% 30.09 in 8.0 mi NNW 9.2 mph - N/A   Overcast
10:51 AM 26.6 °F 18.2 °F 21.2 °F 80% 30.10 in 8.0 mi NNW 8.1 mph - N/A   Overcast
11:51 AM 26.6 °F 19.1 °F 23.0 °F 86% 30.12 in 8.0 mi North 6.9 mph - N/A   Overcast
11:58 AM 26.6 °F 20.0 °F 23.0 °F 86% 30.12 in 9.0 mi North 5.8 mph - N/A   Overcast
12:51 PM 27.0 °F 18.7 °F 23.0 °F 85% 30.15 in 10.0 mi North 8.1 mph - N/A   Overcast
1:51 PM 28.0 °F 19.3 °F 21.9 °F 78% 30.14 in 10.0 mi NNE 9.2 mph - N/A   Overcast
2:51 PM 28.0 °F 18.1 °F 21.0 °F 75% 30.17 in 10.0 mi NNE 11.5 mph - N/A   Overcast
3:51 PM 28.4 °F 19.1 °F 21.2 °F 74% 30.15 in 10.0 mi North 10.4 mph - N/A   Overcast
4:51 PM 28.0 °F 20.8 °F 21.0 °F 75% 30.21 in 10.0 mi NE 6.9 mph - N/A   Overcast
5:51 PM 28.0 °F 21.7 °F 19.9 °F 72% 30.23 in 10.0 mi NNE 5.8 mph - N/A   Overcast
6:51 PM 27.0 °F 23.0 °F 19.9 °F 75% 30.24 in 10.0 mi ENE 3.5 mph - N/A   Overcast
7:51 PM 26.1 °F 20.5 °F 19.0 °F 75% 30.27 in 10.0 mi NNE 4.6 mph - N/A   Overcast
8:51 PM 26.1 °F 18.4 °F 19.0 °F 75% 30.28 in 10.0 mi ENE 6.9 mph - N/A   Overcast
9:51 PM 26.1 °F 19.4 °F 19.0 °F 75% 30.28 in 10.0 mi ENE 5.8 mph - N/A   Overcast
10:41 PM 24.8 °F 20.5 °F 17.6 °F 74% 30.24 in 10.0 mi ENE 3.5 mph - N/A   Scattered Clouds
10:51 PM 23.0 °F 18.4 °F 17.1 °F 78% 30.27 in 10.0 mi ENE 3.5 mph - N/A   Scattered Clouds
11:51 PM 21.2 °F 16.4 °F 17.6 °F 86% 30.23 in 10.0 mi ENE 3.5 mph - N/A   Scattered Clouds